Volver al catálogo

SL-14 R/B

ActivoPO
NORAD 21785·ROCKET BODY·🇷🇺 Russia

Lanzado Nov 12, 1991 desde Plesetsk Cosmodrome

Loading…

Próximos Pases (próximas 24 horas)

TLE

ActualizadoSource: Space-Track

Época: Sep 14, 2026, 14:04 UTC

1 21785U 91077G   26257.58663269  .00000011  00000-0  58039-5 0  9996
2 21785  82.5979 310.0193 0038292 187.5774 327.1501 12.55091673595978

Sigue SL-14 R/B en tiempo real con AllMySat

Download on the App Store